Tracking 30995 objects as of 6-Jul-2025
HD Live streaming from Space Station
objects crossing your sky now

CZ-4C DEB

Track CZ-4C DEB now!
10-day predictions


NORAD ID: 39243
Int'l Code: 2013-046E
Perigee: 797.0 km
Apogee: 1,399.0 km
Inclination: 63.4 °
Period: 107.1 minutes
Semi major axis: 7469 km
RCS: Unknown
Launch date: September 1, 2013
Source: People's Republic of China (PRC)
Launch site: Jiuquan Satellite Launch Center, China (JSC)

Note: This is SATELLITE DEBRIS
Your satellite tracking list
Your tracking list is empty




NASA's NSSDC Master Catalog

Two Line Element Set (TLE):
1 39243U 13046E   25186.58594148 -.00000066  00000-0  25496-4 0  9994
2 39243  63.3907 279.2447 0403029  11.3611 349.6185 13.44958706581385
Source of the keplerian elements: AFSPC